Temperature
18 18 17 17 17 16 16 16 16 16 15 15 15 15 15 14 14 14 14 14 14 14 14 14 14 14 13 13 13 13 13 13 13 13 13 14 14 14 13 13 13 14 13
18 17 17 17 17 16 16 16 16 16 15 15 15 15 15 14 14 14 14 14 14 14 14 14 13 13 13 13 13 13 13 13 13 13 14 14 14 13 13 13 13 13 13
18 18 17 17 16 16 16 16 16 15 15 15 15 15 14 14 14 14 14 14 14 14 14 13 13 13 13 13 13 13 13 13 13 13 13 14 14 13 13 13 13 13 13
18 17 17 17 16 16 16 16 15 15 15 15 15 14 14 14 14 14 13 13 13 13 13 13 13 13 13 13 13 12 12 12 12 12 13 13 13 13 14 13 13 13 13
17 17 17 16 16 16 16 15 15 15 15 15 15 14 14 14 14 13 13 13 13 13 13 13 13 13 13 12 12 12 12 12 12 12 12 12 12 13 13 13 13 13 12
17 17 16 16 16 16 15 15 15 15 15 14 14 14 14 13 13 13 13 13 13 13 13 13 13 12 12 12 12 12 12 12 12 12 12 12 12 12 13 13 13 13 12
17 17 16 16 16 15 15 15 15 15 14 14 14 13 13 13 13 13 13 13 12 12 12 12 12 12 12 12 12 12 12 12 12 12 12 12 12 12 12 12 13 12 12
17 16 16 16 15 15 15 15 15 14 14 14 14 13 13 13 13 13 13 12 12 12 12 12 12 12 12 12 12 12 12 12 11 11 11 11 11 12 12 12 12 12 13
17 16 15 15 15 15 15 15 14 14 14 14 14 13 13 13 13 13 13 12 12 12 12 12 12 12 12 12 12 11 11 11 11 11 11 11 11 11 11 11 12 12 13
16 16 15 15 15 15 15 14 14 14 14 14 13 13 13 13 13 12 12 12 12 12 12 12 12 12 12 11 11 11 11 11 11 11 11 11 11 11 11 11 11 11 12
16 16 15 15 15 14 14 14 14 13 13 13 13 13 13 12 12 12 12 12 12 12 12 11 11 11 11 11 11 11 11 11 11 11 11 11 11 11 11 11 11 11 11
16 15 15 14 14 14 14 14 13 13 13 13 13 12 13 12 12 12 12 12 12 12 11 11 11 11 11 11 11 11 11 11 11 11 11 11 11 11 11 11 11 11 11
15 15 14 14 14 14 14 13 13 13 13 13 12 12 12 12 12 12 12 12 12 12 11 11 11 11 11 11 11 11 11 11 11 11 11 11 11 11 11 11 11 11 11
15 15 14 14 14 14 13 13 13 13 13 12 12 12 12 12 12 11 11 11 11 11 11 11 11 11 11 11 11 11 11 11 11 11 11 11 11 11 11 11 11 11 10
15 14 14 14 13 13 13 13 12 12 12 12 12 12 12 11 11 11 11 11 11 11 11 11 11 11 11 11 11 11 11 11 11 11 10 10 11 11 11 10 10 10 10
14 14 13 13 13 13 13 13 12 12 12 12 12 11 11 11 11 11 11 11 11 11 10 10 10 10 11 11 11 11 10 10 10 10 10 10 10 10 10 10 10 10 10
14 14 13 13 13 13 13 12 12 12 12 11 11 11 11 11 11 11 11 11 10 10 10 10 10 10 10 11 11 11 10 10 10 10 10 10 10 10 10 10 10 10 10
13 13 13 13 12 12 12 12 12 12 11 11 11 11 11 11 10 11 11 11 10 10 10 10 10 10 10 10 10 10 10 10 10 10 10 10 10 10 10 10 10 10 10
13 13 13 12 12 12 12 12 12 11 11 11 11 11 10 10 10 10 10 10 10 10 10 10 10 10 10 10 10 10 9 9 9 9 9 9 9 9 9 9 9 9 9
13 12 12 12 12 12 11 11 11 11 11 11 11 10 10 10 10 10 10 10 10 10 10 9 9 9 9 9 9 9 9 9 9 9 9 9 9 9 9 9 9 9 9
12 12 12 12 11 11 11 11 11 11 11 10 10 10 10 10 10 10 10 10 10 9 9 9 9 9 9 9 9 9 8 8 8 8 8 8 9 9 9 9 9 9 9
12 12 12 11 11 11 11 11 11 11 10 10 10 10 10 10 10 9 9 9 9 9 9 9 9 9 9 8 8 8 8 8 8 8 8 8 8 8 8 8 8 8 8
11 11 11 11 11 11 11 10 10 10 10 10 10 10 9 9 9 9 9 9 9 8 8 8 8 8 8 8 8 8 8 8 7 7 7 7 8 8 7 8 8 8 7
11 11 11 10 10 10 10 10 10 10 10 10 9 9 9 9 9 9 8 8 8 8 8 7 7 7 7 7 7 7 7 7 7 7 7 7 7 7 7 7 7 7 7
10 10 10 10 10 10 10 10 10 9 9 9 9 9 9 9 8 8 8 8 7 7 7 7 7 7 7 7 7 7 6 6 6 6 6 6 6 6 6 6 6 6 6
10 10 9 9 9 9 9 9 9 9 9 9 8 8 8 8 8 8 7 7 7 7 7 6 6 6 6 6 6 6 6 6 6 6 6 5 5 5 5 5 5 5 5
Wind_Speed
6 7 7 7 7 7 7 6 6 6 5 3 3 3 2 2 2 1 1 1 1 1 1 1 1 1 1 1 1 1 1 1 1 0 0 1 1 1 1 1 1 2 3
7 7 8 8 7 7 7 7 7 6 5 4 3 3 2 2 1 1 1 1 1 1 1 1 0 0 0 0 0 0 0 1 1 1 1 1 1 1 0 0 1 1 2
8 9 9 9 8 8 7 6 7 7 5 5 3 3 2 2 2 2 1 1 1 0 0 1 0 0 0 1 1 1 1 1 1 2 1 1 1 0 1 0 0 0 1
8 8 9 9 9 8 7 7 6 6 6 6 5 5 4 3 3 2 2 2 2 1 1 1 1 1 1 1 2 1 2 2 1 1 1 2 2 2 1 1 1 1 1
8 9 9 9 8 8 7 6 6 6 5 5 5 5 4 3 3 2 2 2 1 1 1 1 2 2 1 2 2 2 2 3 3 2 2 2 2 4 2 1 1 1 1
8 8 8 8 7 7 7 6 6 6 5 5 5 6 5 4 3 3 2 2 2 2 1 2 2 2 2 2 3 3 3 3 3 3 2 2 2 2 2 3 3 2 2
7 8 8 8 7 8 7 7 7 7 6 6 5 6 6 5 5 4 3 3 2 2 2 2 3 2 3 3 3 3 3 4 4 3 3 3 3 2 3 3 3 3 2
6 7 7 8 7 8 8 8 8 7 7 7 6 6 5 5 4 4 4 3 3 3 3 3 3 3 3 3 3 3 3 3 4 4 4 3 3 3 3 3 3 3 3
5 6 6 6 7 7 7 8 8 7 7 7 6 6 6 5 5 5 4 3 3 3 3 3 3 3 3 3 3 3 4 3 4 4 4 4 3 3 3 3 4 4 4
4 5 5 5 6 6 6 6 7 7 7 7 6 5 5 5 4 4 4 4 4 3 3 3 3 3 4 4 4 4 4 4 4 3 5 4 4 4 4 4 4 4 5
4 4 4 5 5 5 5 6 6 6 6 6 6 6 5 5 5 4 5 4 4 4 4 4 4 4 4 4 4 5 5 5 5 5 5 6 5 4 4 4 4 4 4
4 4 4 4 5 5 5 5 6 6 6 5 6 6 5 5 5 5 5 5 5 5 5 4 5 4 4 4 5 5 5 6 6 6 6 6 5 5 5 4 5 5 5
4 4 4 4 4 4 5 5 5 5 5 5 6 6 6 6 6 6 5 6 5 5 5 5 5 5 5 5 5 6 6 6 7 7 6 6 6 6 5 5 5 4 4
4 4 4 4 4 4 4 4 5 5 5 5 6 6 6 6 6 6 6 6 6 5 5 5 5 5 5 6 6 7 7 7 6 6 6 6 6 6 6 5 6 5 4
3 4 4 4 4 4 4 4 4 5 5 5 6 6 6 6 6 6 6 6 6 6 6 6 6 6 5 5 6 6 6 6 6 6 6 6 6 5 5 4 5 5 5
2 3 4 4 4 5 4 4 4 4 5 5 5 5 6 6 6 6 6 6 6 6 6 6 6 6 5 3 5 6 6 7 6 6 6 6 6 6 6 5 5 5 6
3 3 3 4 4 4 4 4 4 4 4 5 5 5 5 5 6 6 6 6 6 7 7 7 7 7 6 4 4 6 7 7 6 6 6 4 4 5 6 5 6 7 7
3 3 3 3 3 3 4 4 4 4 4 4 4 4 4 5 5 5 6 6 6 6 6 6 7 6 5 4 4 5 7 7 7 7 6 5 5 4 5 5 5 6 6
3 2 3 3 2 3 3 3 4 4 3 4 4 4 4 5 5 5 6 6 6 6 6 6 6 7 6 4 4 5 6 6 7 6 6 6 6 3 4 6 6 6 6
1 1 1 1 2 2 3 3 3 3 3 4 4 3 4 4 4 5 5 4 5 5 6 6 6 6 6 3 3 4 5 6 6 5 5 4 4 4 3 6 6 7 6
1 1 0 0 1 2 3 3 3 3 3 3 3 3 3 3 3 3 3 4 4 4 5 5 5 5 5 4 3 3 4 5 6 5 5 3 2 3 3 5 6 5 6
1 1 0 0 0 1 2 3 2 2 2 2 2 2 2 2 2 2 2 3 3 4 4 4 5 4 4 3 3 4 5 6 6 5 5 3 1 3 4 4 4 4 5
0 1 1 0 0 1 2 3 2 2 2 2 2 2 2 2 1 1 1 2 2 3 3 4 4 4 3 3 3 4 5 6 5 4 3 2 2 4 4 4 4 4 4
1 1 0 0 0 0 1 2 2 2 3 2 2 2 2 1 1 1 1 2 2 3 3 4 4 4 3 3 3 3 3 4 5 4 3 3 3 4 4 3 4 4 4
1 0 0 1 1 1 1 1 1 2 2 2 2 2 1 1 1 1 1 2 2 3 4 4 4 4 4 3 3 3 3 3 3 3 3 3 3 3 3 3 3 3 3
1 0 1 1 1 1 1 0 1 1 2 1 1 1 1 1 1 1 1 2 1 3 3 4 4 3 4 3 2 3 2 1 1 2 3 3 3 3 3 3 3 3 3
Wind_Direction
203 192 191 190 189 185 186 184 185 178 175 173 171 170 164 154 139 120 97 93 72 61 67 61 62 48 72 71 94 83 86 45 6 275 75 120 72 39 43 36 39 51 42
195 186 188 186 190 190 193 190 192 184 180 182 182 179 170 176 152 148 132 113 79 59 48 43 66 111 109 152 91 36 313 15 322 310 278 231 187 109 65 24 20 27 53
200 186 186 187 189 193 193 193 193 185 179 177 178 169 165 183 180 184 194 213 219 180 69 18 329 277 210 236 248 219 238 276 294 316 309 292 286 268 160 318 279 360 5
205 192 188 190 193 195 195 194 187 183 181 179 184 187 191 195 202 192 195 210 219 223 233 263 263 252 250 251 254 250 256 264 274 284 303 305 319 274 238 214 254 301 307
204 197 193 193 193 190 191 194 185 181 181 187 181 195 198 197 192 190 193 202 205 228 237 259 256 255 256 262 264 264 259 255 268 273 260 258 272 268 270 254 262 245 241
200 198 193 190 187 181 184 187 186 183 183 187 189 197 197 200 199 198 202 206 201 219 237 260 253 256 258 260 261 258 255 262 264 266 258 252 249 258 257 261 254 255 253
193 193 187 184 183 182 185 187 188 189 191 196 196 203 205 209 212 212 215 220 219 225 235 243 251 257 257 256 256 256 256 253 253 255 259 262 267 277 272 267 264 266 255
185 185 186 186 185 185 188 192 193 196 197 202 204 207 211 218 219 224 229 228 236 242 248 252 255 258 257 250 243 253 254 253 251 254 256 258 263 260 262 264 264 260 249
178 179 181 187 186 188 191 196 197 200 200 204 208 212 214 221 223 227 232 233 239 245 249 248 250 251 251 251 246 247 251 253 256 257 254 253 253 249 251 256 263 267 262
175 178 180 187 187 190 193 195 198 203 203 205 208 210 217 220 229 228 232 236 242 243 242 245 253 254 251 249 246 248 250 248 252 263 264 256 247 242 242 246 250 257 267
179 180 181 185 184 184 189 195 200 205 207 206 210 211 215 224 226 233 238 244 250 247 248 250 255 257 255 253 246 247 242 246 248 249 259 259 251 240 239 243 245 249 253
181 178 178 178 182 189 193 200 203 204 205 207 210 214 215 221 227 234 239 241 247 249 249 250 252 255 258 257 252 249 247 248 251 254 259 262 252 245 243 241 242 243 245
181 177 177 181 188 195 200 205 207 206 205 207 211 216 218 221 228 234 241 240 241 241 242 247 248 251 253 253 252 252 249 251 254 254 258 262 254 245 239 241 245 245 245
191 191 191 192 193 197 201 206 212 209 205 208 216 220 223 226 231 235 240 243 241 241 242 247 249 250 252 254 256 254 252 253 256 258 257 260 258 256 249 242 245 243 242
208 209 211 209 204 202 203 206 208 208 205 208 217 224 229 233 235 239 242 245 246 246 246 248 251 254 253 260 265 260 256 256 255 257 258 259 263 273 270 258 248 240 241
233 231 228 220 217 214 210 206 207 208 207 210 216 222 231 234 238 241 244 246 247 247 248 249 251 255 253 267 275 272 258 256 255 259 262 258 244 242 243 255 256 249 245
251 245 241 231 225 221 217 212 208 204 208 215 220 222 231 238 242 243 243 245 245 245 247 249 251 254 254 250 252 261 259 256 256 259 261 263 266 251 250 239 234 237 238
264 264 259 244 229 220 212 209 204 202 207 216 221 223 231 239 243 242 244 248 251 247 246 248 250 253 252 246 248 253 251 254 254 253 255 257 262 267 264 258 248 248 242
280 274 266 247 221 211 203 200 202 203 206 216 224 229 234 241 244 245 248 250 250 250 248 246 249 250 249 237 240 247 254 255 256 255 253 254 259 276 264 256 256 255 251
326 309 252 224 210 203 195 197 201 205 213 223 231 234 236 243 247 251 254 254 252 256 256 251 250 251 255 243 242 251 251 255 256 258 256 240 262 280 253 253 256 258 261
4 7 138 219 229 196 190 199 202 216 228 229 229 233 239 243 251 259 255 255 255 257 257 259 258 255 258 248 238 249 254 256 259 257 258 258 226 272 275 269 264 273 279
10 356 25 353 261 205 197 207 216 232 224 215 219 228 236 240 247 255 265 261 259 257 259 261 265 266 262 262 252 245 258 277 262 260 262 267 253 270 272 267 280 289 273
335 322 309 283 233 232 227 224 226 228 213 200 203 215 218 221 230 239 258 270 269 266 266 266 266 269 272 263 241 240 250 263 263 266 298 304 267 256 253 249 263 258 255
331 326 280 241 326 263 240 247 228 216 206 195 199 211 218 223 227 241 251 263 272 274 272 269 269 271 269 269 262 255 251 248 255 263 256 233 238 249 270 259 249 250 254
335 336 309 323 312 319 295 269 242 214 204 193 196 210 213 229 239 237 277 271 276 292 287 280 274 274 272 291 319 285 268 266 264 263 259 260 255 258 262 268 268 259 255
312 359 3 354 342 338 340 330 256 209 196 189 191 211 222 236 254 262 291 45 336 349 330 327 309 293 314 328 303 285 291 308 279 248 254 258 262 267 270 270 273 277 277
Height
1527 1528 1529 1531 1533 1534 1535 1536 1537 1538 1539 1539 1540 1540 1541 1541 1541 1541 1541 1541 1541 1541 1540 1540 1540 1539 1539 1539 1538 1538 1538 1538 1538 1538 1537 1537 1536 1536 1535 1536 1535 1535 1534
1524 1526 1527 1529 1530 1532 1533 1535 1536 1537 1538 1538 1539 1540 1540 1540 1540 1540 1540 1540 1540 1540 1540 1540 1539 1538 1538 1538 1538 1537 1538 1538 1537 1538 1537 1537 1538 1536 1535 1535 1535 1535 1534
1521 1523 1525 1526 1528 1530 1531 1533 1534 1536 1536 1537 1538 1538 1539 1539 1540 1539 1539 1539 1539 1539 1539 1539 1539 1538 1538 1538 1537 1537 1537 1537 1537 1537 1538 1537 1536 1536 1536 1535 1534 1534 1534
1519 1521 1522 1524 1526 1527 1529 1531 1532 1534 1535 1535 1536 1537 1537 1538 1538 1539 1539 1539 1539 1539 1538 1538 1538 1537 1537 1537 1537 1536 1536 1536 1536 1536 1536 1536 1536 1536 1535 1535 1534 1533 1533
1516 1518 1520 1522 1524 1525 1527 1529 1531 1532 1533 1534 1534 1535 1536 1537 1537 1537 1538 1538 1538 1537 1537 1537 1537 1536 1536 1536 1535 1535 1535 1535 1535 1535 1535 1534 1534 1534 1534 1533 1533 1533 1532
1513 1515 1518 1520 1522 1523 1525 1526 1528 1529 1531 1531 1532 1533 1534 1535 1536 1536 1536 1536 1536 1536 1536 1536 1535 1535 1535 1534 1534 1534 1533 1533 1533 1533 1533 1533 1533 1533 1533 1532 1532 1531 1531
1511 1513 1515 1517 1519 1520 1522 1524 1526 1527 1528 1530 1531 1532 1533 1534 1534 1535 1535 1535 1535 1535 1535 1534 1534 1534 1533 1533 1533 1532 1532 1532 1532 1531 1531 1531 1531 1531 1531 1531 1530 1530 1530
1509 1510 1512 1514 1516 1518 1519 1521 1523 1525 1526 1527 1529 1530 1531 1532 1532 1533 1534 1534 1534 1534 1533 1533 1533 1532 1532 1531 1531 1531 1531 1531 1530 1530 1529 1529 1529 1529 1529 1529 1529 1528 1528
1507 1509 1510 1512 1514 1515 1517 1519 1520 1522 1523 1525 1526 1527 1528 1529 1530 1531 1532 1532 1532 1532 1531 1531 1531 1531 1530 1530 1529 1529 1529 1529 1528 1528 1528 1527 1527 1526 1526 1526 1526 1527 1526
1507 1508 1509 1510 1512 1513 1515 1516 1518 1519 1521 1522 1523 1524 1526 1527 1528 1528 1529 1530 1530 1530 1530 1530 1529 1529 1528 1528 1527 1527 1527 1527 1526 1525 1525 1525 1525 1524 1524 1523 1523 1524 1524
1506 1507 1508 1509 1510 1511 1512 1514 1515 1517 1518 1519 1521 1522 1523 1524 1525 1526 1526 1527 1527 1528 1528 1527 1527 1527 1526 1526 1525 1525 1524 1524 1524 1523 1523 1522 1522 1521 1521 1520 1520 1520 1520
1505 1506 1507 1508 1508 1509 1510 1511 1512 1514 1515 1516 1517 1519 1520 1521 1522 1523 1524 1524 1525 1525 1525 1525 1525 1524 1524 1523 1523 1522 1522 1522 1521 1521 1520 1520 1519 1518 1518 1518 1517 1517 1517
1504 1505 1505 1506 1507 1507 1508 1509 1510 1511 1512 1513 1514 1516 1517 1518 1519 1520 1520 1521 1522 1522 1522 1522 1522 1522 1521 1521 1520 1520 1519 1519 1518 1518 1517 1517 1516 1515 1515 1514 1514 1514 1514
1503 1503 1503 1504 1505 1506 1506 1507 1508 1508 1509 1510 1512 1513 1514 1515 1516 1517 1517 1518 1518 1519 1519 1519 1519 1518 1518 1518 1517 1516 1516 1516 1515 1514 1514 1513 1513 1512 1512 1511 1511 1511 1510
1501 1501 1502 1502 1502 1503 1504 1504 1505 1506 1507 1508 1509 1510 1511 1512 1513 1513 1514 1514 1514 1515 1515 1515 1515 1515 1515 1514 1514 1513 1513 1512 1511 1511 1510 1509 1509 1508 1508 1508 1507 1507 1507
1499 1499 1500 1500 1500 1501 1501 1501 1502 1503 1504 1505 1506 1507 1508 1509 1509 1510 1510 1510 1510 1511 1511 1511 1511 1511 1511 1510 1510 1509 1509 1508 1508 1507 1506 1506 1505 1504 1504 1504 1503 1503 1503
1497 1497 1497 1497 1497 1498 1498 1499 1499 1500 1501 1501 1503 1503 1504 1505 1505 1506 1506 1506 1507 1507 1507 1507 1507 1507 1507 1506 1506 1505 1505 1505 1504 1503 1503 1502 1502 1501 1501 1500 1499 1499 1499
1495 1495 1495 1495 1495 1495 1496 1496 1497 1497 1498 1499 1499 1500 1501 1502 1502 1502 1503 1503 1503 1503 1503 1503 1503 1503 1502 1502 1501 1501 1501 1501 1500 1500 1499 1498 1498 1497 1497 1497 1496 1495 1495
1493 1493 1493 1493 1492 1493 1493 1494 1494 1495 1495 1496 1496 1497 1498 1498 1498 1498 1499 1499 1499 1499 1499 1499 1499 1498 1498 1497 1497 1497 1497 1496 1496 1496 1495 1494 1494 1494 1493 1493 1493 1492 1492
1491 1490 1490 1490 1490 1490 1490 1491 1491 1491 1492 1492 1493 1494 1494 1495 1495 1495 1495 1495 1495 1495 1495 1494 1494 1494 1494 1493 1492 1492 1493 1492 1492 1491 1491 1490 1490 1490 1489 1489 1489 1489 1489
1489 1488 1488 1487 1487 1487 1488 1488 1488 1488 1489 1489 1490 1491 1491 1491 1491 1492 1491 1491 1491 1491 1491 1490 1490 1490 1489 1489 1488 1488 1488 1488 1488 1488 1487 1487 1486 1486 1485 1485 1485 1485 1485
1487 1487 1486 1485 1485 1485 1485 1485 1485 1486 1486 1487 1487 1488 1488 1488 1488 1488 1488 1488 1487 1487 1487 1486 1486 1486 1485 1484 1484 1483 1483 1484 1484 1484 1484 1483 1482 1481 1481 1481 1480 1481 1481
1485 1485 1484 1484 1483 1483 1483 1483 1483 1483 1484 1484 1484 1485 1485 1486 1485 1485 1485 1484 1484 1484 1483 1483 1482 1482 1481 1481 1480 1480 1479 1479 1479 1479 1479 1479 1478 1478 1477 1477 1476 1476 1477
1483 1482 1482 1481 1481 1480 1480 1480 1480 1481 1481 1481 1482 1482 1483 1483 1483 1482 1482 1481 1480 1480 1480 1479 1479 1478 1477 1477 1476 1476 1475 1475 1475 1475 1475 1475 1474 1474 1473 1473 1473 1473 1473
1481 1480 1480 1479 1478 1478 1477 1477 1477 1478 1478 1478 1479 1479 1479 1479 1479 1479 1478 1478 1478 1477 1477 1476 1475 1474 1474 1473 1473 1472 1472 1471 1471 1472 1471 1471 1471 1470 1470 1470 1470 1469 1469
1478 1478 1477 1476 1475 1475 1474 1474 1474 1475 1475 1475 1476 1476 1476 1476 1476 1476 1475 1475 1474 1474 1473 1472 1472 1471 1471 1470 1469 1468 1468 1467 1467 1468 1467 1467 1467 1467 1467 1466 1466 1466 1466